TimeCDT,TemperatureF,Dew PointF,Humidity,Sea Level PressureIn,VisibilityMPH,Wind Direction,Wind SpeedMPH,Gust SpeedMPH,PrecipitationIn,Events,Conditions,WindDirDegrees,DateUTC
12:54 AM,28.9,21.0,72,30.37,10.0,Calm,Calm,-,N/A,,Clear,0,2013-03-28 05:54:00
1:54 AM,26.1,21.0,81,30.38,10.0,Calm,Calm,-,N/A,,Clear,0,2013-03-28 06:54:00
2:54 AM,23.0,19.0,85,30.37,8.0,Calm,Calm,-,N/A,,Clear,0,2013-03-28 07:54:00
3:54 AM,21.9,18.0,85,30.37,9.0,Calm,Calm,-,N/A,,Clear,0,2013-03-28 08:54:00
4:54 AM,24.1,19.0,81,30.37,10.0,Calm,Calm,-,N/A,,Clear,0,2013-03-28 09:54:00
5:54 AM,21.9,18.0,85,30.38,9.0,Calm,Calm,-,N/A,,Clear,0,2013-03-28 10:54:00
6:54 AM,23.0,19.0,85,30.39,6.0,Calm,Calm,-,N/A,,Clear,0,2013-03-28 11:54:00
7:54 AM,26.1,21.0,81,30.40,6.0,Calm,Calm,-,N/A,,Haze,0,2013-03-28 12:54:00
8:54 AM,33.1,25.0,72,30.41,8.0,Calm,Calm,-,N/A,,Clear,0,2013-03-28 13:54:00
9:54 AM,37.9,24.1,57,30.41,10.0,Calm,Calm,-,N/A,,Clear,0,2013-03-28 14:54:00
10:54 AM,42.1,21.0,43,30.41,10.0,Calm,Calm,-,N/A,,Clear,0,2013-03-28 15:54:00
11:54 AM,43.0,24.1,47,30.40,10.0,SE,5.8,-,N/A,,Clear,140,2013-03-28 16:54:00
12:54 PM,43.0,24.1,47,30.40,10.0,SSE,5.8,-,N/A,,Clear,150,2013-03-28 17:54:00
1:54 PM,44.1,24.1,45,30.38,10.0,SE,5.8,-,N/A,,Clear,140,2013-03-28 18:54:00
2:54 PM,45.0,25.0,46,30.35,10.0,Calm,Calm,-,N/A,,Clear,0,2013-03-28 19:54:00
3:54 PM,46.0,26.1,46,30.34,10.0,ESE,5.8,-,N/A,,Clear,120,2013-03-28 20:54:00
4:54 PM,46.0,27.0,47,30.32,10.0,SE,5.8,-,N/A,,Clear,130,2013-03-28 21:54:00
5:54 PM,46.0,28.0,50,30.32,10.0,East,5.8,-,N/A,,Clear,100,2013-03-28 22:54:00
6:54 PM,39.9,32.0,73,30.32,10.0,ENE,6.9,-,N/A,,Clear,70,2013-03-28 23:54:00
7:54 PM,37.9,30.9,76,30.32,10.0,East,4.6,-,N/A,,Clear,90,2013-03-29 00:54:00
8:54 PM,33.1,28.0,82,30.34,10.0,NE,5.8,-,N/A,,Clear,50,2013-03-29 01:54:00
9:54 PM,34.0,28.0,79,30.34,10.0,Calm,Calm,-,N/A,,Clear,0,2013-03-29 02:54:00
10:54 PM,33.1,28.0,82,30.32,10.0,East,4.6,-,N/A,,Clear,90,2013-03-29 03:54:00
11:54 PM,33.1,28.0,82,30.32,9.0,East,3.5,-,N/A,,Partly Cloudy,100,2013-03-29 04:54:00